Stations météo

réclame
Mon MeteoGroup
Leck, Allemagne (10022): Température de l'air & dewpoint: 13.06.2019 11:00:00 - 19.06.2019 11:00:00 (CEST)Leck, Allemagne (10022): Température de l'air 5cm & Température de l'air -5cm: 13.06.2019 11:00:00 - 19.06.2019 11:00:00 (CEST)Leck, Allemagne (10022): Température de l'air -20cm & Température de l'air -100cm: 13.06.2019 11:00:00 - 19.06.2019 11:00:00 (CEST)Leck, Allemagne (10022): Vitesse du vent & gusts: 13.06.2019 11:00:00 - 19.06.2019 11:00:00 (CEST)Leck, Allemagne (10022): Direction du vent: 13.06.2019 11:00:00 - 19.06.2019 11:00:00 (CEST)Leck, Allemagne (10022): reduced air pressure: 13.06.2019 11:00:00 - 19.06.2019 11:00:00 (CEST)Leck, Allemagne (10022): visibility: 13.06.2019 11:00:00 - 19.06.2019 11:00:00 (CEST)Leck, Allemagne (10022): Ensoleillement: 13.06.2019 11:00:00 - 19.06.2019 11:00:00 (CEST)Leck, Allemagne (10022): Quantités de précipitations: 13.06.2019 11:00:00 - 19.06.2019 11:00:00 (CEST)
Date & Time tt [°C] td [°C] tt 5cm [°C] tt -5cm [°C] tt -20cm [°C] tt -100cm [°C] ff [km/h] ff [knt] fx [km/h] fx [knt] dd ppp [hPa] vv [km] sd [min] rr [mm]
19.06.2019 11:00:00 24,0 16,3 27,4 26,1 18,0 13,9 17 9 27 15 ESE 1007,9 - 57 0,0
19.06.2019 10:00:00 21,2 16,0 24,1 22,6 17,7 13,9 13 7 21 11 E 1008,1 - 58 0,0
19.06.2019 09:00:00 19,2 16,2 20,3 19,7 17,6 13,9 21 11 29 16 E 1008,9 - 43 0,0
19.06.2019 08:00:00 16,4 15,5 15,4 16,1 17,8 13,9 13 7 19 10 E 1009,3 - 0 0,4
19.06.2019 07:00:00 15,6 14,3 15,2 15,9 18,0 13,9 10 5 14 7 ENE 1009,8 - 0 0,0
19.06.2019 06:00:00 14,7 13,6 13,9 15,2 18,3 13,9 5 3 6 3 E 1010,4 - 0 0,0
19.06.2019 05:00:00 13,9 12,9 11,2 15,2 18,7 13,9 4 2 9 5 NNE 1010,7 - 0 0,0
19.06.2019 04:00:00 13,7 12,1 12,0 15,4 19,1 13,9 4 2 8 4 ENE 1011,3 - 0 0,0
19.06.2019 03:00:00 14,6 12,3 11,7 15,9 19,6 13,8 5 3 7 4 E 1011,8 - 0 0,0
19.06.2019 02:00:00 14,0 12,2 11,3 16,3 20,1 13,8 4 2 8 4 N 1012,3 - 0 0,0
19.06.2019 01:00:00 14,5 12,4 10,6 17,0 20,6 13,8 3 2 5 3 NW 1013,0 - 0 0,0
19.06.2019 00:00:00 15,1 12,6 11,2 18,1 21,1 13,8 2 1 6 3 NNE 1013,3 - 0 0,0
18.06.2019 23:00:00 16,6 12,7 13,0 19,6 21,6 13,8 4 2 15 8 NNE 1013,6 - 0 0,0
18.06.2019 22:00:00 17,7 13,0 16,2 21,5 22,1 13,8 11 6 15 8 NNW 1013,6 - 24 0,0
18.06.2019 21:00:00 19,6 13,9 19,9 23,6 22,3 13,8 10 6 22 12 NNW 1013,5 - 56 0,0
18.06.2019 20:00:00 21,2 15,2 22,9 26,2 22,4 13,8 14 8 23 13 NW 1013,5 - 60 0,0
18.06.2019 19:00:00 22,3 16,0 25,3 28,4 22,3 13,8 18 10 24 13 NW 1013,4 - 53 0,0
18.06.2019 18:00:00 24,0 15,5 26,9 30,0 22,0 13,7 15 8 25 13 WNW 1013,6 - 59 0,0
18.06.2019 17:00:00 24,4 14,7 26,6 30,8 21,5 13,7 14 8 22 12 W 1013,5 - 53 0,0
18.06.2019 16:00:00 25,0 15,6 28,9 32,6 20,8 13,7 15 8 26 14 W 1013,9 - 60 0,0
18.06.2019 15:00:00 25,3 17,2 29,5 32,2 20,1 13,7 14 8 24 13 SW 1014,3 - 60 0,0
18.06.2019 14:00:00 25,2 17,2 29,0 30,8 19,3 13,7 13 7 19 11 SW 1014,6 - 42 0,0
18.06.2019 13:00:00 24,6 16,9 27,3 27,7 18,8 13,7 9 5 19 10 SSW 1014,9 - 23 0,0
18.06.2019 12:00:00 23,0 16,4 24,7 26,8 18,2 13,7 13 7 22 12 S 1015,2 - 37 0,0
18.06.2019 11:00:00 23,4 15,7 27,0 26,3 17,6 13,7 12 7 19 10 SSW 1015,6 - 60 0,0
18.06.2019 10:00:00 22,3 14,7 25,1 23,4 17,3 13,7 12 6 21 11 SSW 1015,8 - 50 0,0
18.06.2019 09:00:00 20,8 14,7 21,6 20,7 17,1 13,7 10 6 16 9 S 1016,0 - 59 0,0
18.06.2019 08:00:00 19,8 14,2 20,2 18,7 17,0 13,6 10 5 16 8 SE 1016,0 - 58 0,0
18.06.2019 07:00:00 18,1 13,7 17,7 16,1 17,2 13,6 8 5 22 12 SE 1016,2 - 20 0,0
18.06.2019 06:00:00 17,4 13,3 16,5 15,3 17,4 13,6 10 5 17 9 SE 1016,4 - 0 0,0
18.06.2019 05:00:00 16,7 12,9 15,0 15,1 17,7 13,6 10 6 23 12 SE 1016,7 - 0 0,0
18.06.2019 04:00:00 16,6 12,8 15,2 15,4 18,1 13,6 10 5 16 9 SE 1017,0 - 0 0,0
18.06.2019 03:00:00 15,5 13,0 13,7 15,4 18,4 13,6 11 6 16 9 ESE 1017,3 - 0 0,0
18.06.2019 02:00:00 16,0 13,5 14,2 15,9 18,9 13,6 13 7 17 9 ESE 1017,6 - 0 0,0
18.06.2019 01:00:00 15,4 13,7 13,6 16,5 19,3 13,6 9 5 13 7 E 1018,0 - 0 0,0
18.06.2019 00:00:00 16,3 13,7 14,5 17,5 19,8 13,6 11 6 16 9 E 1018,2 - 0 0,0
17.06.2019 23:00:00 17,2 13,6 15,5 18,7 20,2 13,6 12 6 15 8 E 1018,5 - 0 0,0
17.06.2019 22:00:00 18,6 14,8 16,4 20,5 20,5 13,6 10 5 22 12 E 1018,8 - 11 0,0
17.06.2019 21:00:00 21,0 14,5 20,5 22,6 20,6 13,6 16 8 19 10 E 1018,8 - 60 0,0
17.06.2019 20:00:00 23,4 13,7 24,3 25,0 20,6 13,6 3 2 16 9 SSE 1019,2 - 60 0,0
17.06.2019 19:00:00 22,9 13,2 24,7 26,3 20,4 13,6 8 5 19 10 SSW 1019,6 - 60 0,0
17.06.2019 18:00:00 22,4 12,6 25,2 27,6 20,0 13,6 11 6 20 11 SW 1020,1 - 60 0,0
17.06.2019 17:00:00 22,1 12,4 25,5 28,5 19,4 13,6 9 5 21 11 SSW 1020,6 - 60 0,0
17.06.2019 16:00:00 21,8 13,3 25,7 28,5 18,8 13,6 11 6 24 13 SW 1021,0 - 60 0,0
17.06.2019 15:00:00 21,1 12,6 25,5 27,8 18,2 13,6 16 8 26 14 WSW 1021,2 - 60 0,0
17.06.2019 14:00:00 20,5 12,1 23,2 26,5 17,6 13,6 18 10 29 16 W 1021,3 - 59 0,0
17.06.2019 13:00:00 20,5 12,7 24,6 25,4 17,0 13,6 16 9 31 17 SW 1021,5 - 60 0,0
17.06.2019 12:00:00 20,1 12,5 23,1 23,7 16,4 13,5 24 13 34 19 SW 1021,5 - 60 0,0
17.06.2019 11:00:00 19,4 12,2 22,1 22,1 15,9 13,5 22 12 32 18 SW 1021,5 - 60 0,0
17.06.2019 10:00:00 19,0 13,5 21,4 20,3 15,5 13,5 19 10 35 19 SW 1021,3 - 53 0,0
17.06.2019 09:00:00 17,9 14,5 20,0 18,2 15,3 13,5 21 11 32 18 SSW 1021,3 - 48 0,0
17.06.2019 08:00:00 16,5 13,5 17,7 16,1 15,2 13,5 13 7 23 12 S 1020,9 - 58 0,0
17.06.2019 07:00:00 14,6 11,9 13,7 13,6 15,3 13,5 13 7 17 9 S 1020,6 - 27 0,0
17.06.2019 06:00:00 13,4 11,7 11,7 12,4 15,6 13,5 8 5 13 7 SSE 1020,8 - 0 0,0
17.06.2019 05:00:00 11,8 10,7 8,4 11,8 15,9 13,5 4 2 12 7 ESE 1020,7 - 0 0,0
17.06.2019 04:00:00 13,4 11,6 11,4 12,0 16,3 13,5 9 5 11 6 SSE 1020,5 - 0 0,0
17.06.2019 03:00:00 11,0 10,1 8,6 12,3 16,7 13,5 8 4 9 5 SSE 1020,7 - 0 0,0
17.06.2019 02:00:00 12,1 10,8 9,5 13,0 17,1 13,5 6 3 8 5 S 1020,8 - 0 0,0
17.06.2019 01:00:00 12,4 11,0 9,6 13,8 17,6 13,5 8 4 9 5 S 1020,9 - 0 0,0
17.06.2019 00:00:00 13,4 11,8 10,1 14,8 18,0 13,5 6 3 9 5 SW 1020,8 - 0 0,0
16.06.2019 23:00:00 14,8 11,4 12,4 16,1 18,3 13,5 9 5 11 6 SW 1020,6 - 0 0,0
16.06.2019 22:00:00 16,3 12,5 14,5 17,8 18,5 13,5 7 4 14 8 SW 1020,2 - 11 0,0
16.06.2019 21:00:00 17,6 12,5 17,3 19,5 18,6 13,5 9 5 16 9 WSW 1020,2 - 37 0,0
16.06.2019 20:00:00 18,7 12,1 20,6 21,2 18,6 13,5 10 6 16 8 SSW 1020,1 - 35 0,0
16.06.2019 19:00:00 18,5 13,0 19,5 21,6 18,5 13,5 8 5 18 10 WSW 1019,9 - 37 0,0
16.06.2019 18:00:00 19,3 13,1 21,7 22,3 18,5 13,5 12 7 22 12 WSW 1019,9 - 35 0,0
16.06.2019 17:00:00 18,3 12,7 18,6 20,7 18,5 13,5 13 7 25 13 WSW 1020,0 - 0 0,0
16.06.2019 16:00:00 19,2 11,0 20,0 23,7 18,1 13,5 17 9 29 16 WSW 1019,7 - 38 0,0
16.06.2019 15:00:00 20,4 11,5 24,1 25,3 17,6 13,5 17 9 29 16 SSW 1019,6 - 60 0,0
16.06.2019 14:00:00 19,2 10,7 22,3 24,2 17,0 13,5 16 9 24 13 SW 1019,5 - 53 0,0
16.06.2019 13:00:00 19,2 11,8 23,1 25,1 16,3 13,5 17 9 27 14 SW 1019,2 - 59 0,0
16.06.2019 12:00:00 18,6 12,5 22,9 23,4 15,7 13,5 17 9 27 15 SW 1018,8 - 60 0,0
16.06.2019 11:00:00 18,0 12,9 20,3 20,4 15,3 13,5 16 8 25 13 WSW 1018,3 - 55 0,0
16.06.2019 10:00:00 17,2 12,6 18,4 18,6 15,0 13,5 18 10 29 15 WSW 1018,0 - 43 0,0
16.06.2019 09:00:00 16,7 13,2 17,9 17,2 14,8 13,5 16 8 27 15 SW 1017,7 - 39 0,0
16.06.2019 08:00:00 15,8 13,5 16,6 15,4 14,7 13,5 14 7 24 13 SW 1017,4 - 59 0,0
16.06.2019 07:00:00 13,6 11,4 13,8 13,0 14,9 13,5 7 4 10 5 SSW 1017,0 - 60 0,0
16.06.2019 06:00:00 12,1 10,0 10,2 11,5 15,2 13,5 8 4 12 6 SW 1016,3 - 5 0,0
16.06.2019 05:00:00 11,5 10,0 9,4 11,8 15,5 13,5 9 5 18 10 WSW 1016,2 - 0 0,0
16.06.2019 04:00:00 12,1 11,1 10,7 12,5 15,8 13,5 12 6 19 10 SW 1016,3 - 0 0,0
16.06.2019 03:00:00 13,0 12,4 11,7 13,3 16,0 13,5 11 6 18 10 WSW 1016,0 - 0 0,0
16.06.2019 02:00:00 13,8 12,7 12,7 14,1 16,2 13,5 11 6 23 13 WSW 1015,4 - 0 0,0
16.06.2019 01:00:00 14,3 13,1 13,8 14,8 16,4 13,5 10 5 22 12 W 1015,3 - 0 0,0
16.06.2019 00:00:00 14,2 12,9 13,9 14,9 16,6 13,5 16 8 36 19 W 1014,9 - 0 0,0
15.06.2019 23:00:00 14,2 13,0 14,1 15,4 16,8 13,5 27 14 39 21 W 1013,7 - 0 0,0
15.06.2019 22:00:00 14,5 14,0 14,4 16,2 17,0 13,5 22 12 39 21 W 1012,4 - 0 0,0
15.06.2019 21:00:00 15,8 14,9 15,8 17,5 17,0 13,4 21 12 37 20 WSW 1011,8 - 0 0,0
15.06.2019 20:00:00 17,3 16,0 17,3 18,3 17,0 13,4 23 12 32 17 SW 1011,5 - 2 0,0
15.06.2019 19:00:00 17,1 16,1 17,4 18,3 17,0 13,4 9 5 14 7 SW 1011,0 - 0 0,0
15.06.2019 18:00:00 16,5 15,7 16,7 18,0 17,0 13,4 9 5 11 6 S 1010,5 - 0 0,0
15.06.2019 17:00:00 16,5 15,9 16,2 17,7 17,1 13,4 6 4 20 11 E 1010,3 - 0 1,5
15.06.2019 16:00:00 17,1 14,5 16,3 18,5 17,0 13,4 14 8 35 19 ESE 1010,0 - 0 0,1
15.06.2019 15:00:00 18,9 14,6 18,7 19,5 16,9 13,4 22 12 36 19 E 1009,3 - 0 0,2
15.06.2019 14:00:00 19,1 15,2 18,3 19,9 16,7 13,4 21 11 35 19 ESE 1010,1 - 3 0,1
15.06.2019 13:00:00 19,4 16,9 19,4 20,1 16,4 13,4 16 9 24 13 ENE 1009,4 - 0 0,0
15.06.2019 12:00:00 19,2 17,0 21,5 20,1 16,2 13,4 12 7 29 15 ENE 1009,8 - 0 0,0
15.06.2019 11:00:00 17,9 16,9 18,5 18,0 16,0 13,4 16 9 24 13 NE 1009,8 - 0 0,0
15.06.2019 10:00:00 16,5 15,7 16,7 16,8 16,0 13,4 16 9 22 12 NNE 1010,1 - 0 0,2
15.06.2019 09:00:00 16,0 15,2 15,8 16,2 16,0 13,4 13 7 19 10 NE 1011,7 - 0 0,1
15.06.2019 08:00:00 15,7 15,2 15,4 15,4 16,0 13,4 12 6 18 10 NE 1011,8 - 0 1,6
15.06.2019 07:00:00 15,7 14,8 14,9 15,2 16,1 13,4 9 5 19 10 ENE 1012,4 - 0 0,0
15.06.2019 06:00:00 15,3 14,4 14,5 14,8 16,3 13,3 11 6 17 9 NE 1012,3 - 0 0,0
15.06.2019 05:00:00 14,9 14,2 13,9 14,5 16,5 13,3 11 6 17 9 NNE 1012,7 - 0 0,0
15.06.2019 04:00:00 14,5 14,1 13,5 14,2 16,8 13,3 13 7 17 9 NNE 1013,3 - 0 0,0
15.06.2019 03:00:00 14,1 13,6 12,2 14,3 17,1 13,3 6 3 11 6 NNE 1014,5 - 0 0,0
15.06.2019 02:00:00 14,8 14,0 13,3 14,7 17,5 13,3 9 5 13 7 NE 1015,1 - 0 0,0
15.06.2019 01:00:00 15,0 14,2 13,6 15,0 17,8 13,3 12 7 15 8 ENE 1015,4 - 0 0,0
15.06.2019 00:00:00 15,1 14,2 13,0 15,8 18,2 13,3 7 4 15 8 NNE 1015,8 - 0 0,0
14.06.2019 23:00:00 15,8 14,5 14,0 16,8 18,5 13,3 10 5 13 7 N 1015,9 - 0 0,0
14.06.2019 22:00:00 17,3 15,2 14,8 18,4 18,8 13,3 7 4 10 6 NNW 1016,0 - 24 0,0
14.06.2019 21:00:00 19,5 15,8 19,3 19,7 18,9 13,3 6 3 15 8 NNE 1015,8 - 60 0,0
14.06.2019 20:00:00 19,7 15,2 20,6 20,9 18,9 13,3 13 7 22 12 E 1015,9 - 60 0,0
14.06.2019 19:00:00 19,7 15,8 21,4 22,0 18,8 13,3 16 9 24 13 ENE 1015,8 - 60 0,0
14.06.2019 18:00:00 19,2 14,8 21,4 22,3 18,7 13,3 17 9 31 17 NNE 1015,5 - 59 0,0
14.06.2019 17:00:00 17,8 14,3 20,9 20,9 18,8 13,3 19 11 53 28 NNW 1015,5 - 15 9,1
14.06.2019 16:00:00 18,3 13,0 17,0 23,3 18,6 13,3 29 16 41 22 WNW 1015,5 - 0 0,0
14.06.2019 15:00:00 23,0 12,5 25,7 26,0 18,3 13,3 10 5 19 10 ENE 1015,7 - 10 0,0
14.06.2019 14:00:00 22,2 12,2 23,4 25,6 17,8 13,2 12 6 29 15 SE 1015,9 - 17 0,0
14.06.2019 13:00:00 22,1 12,1 24,7 26,2 17,1 13,2 20 11 29 16 SE 1016,1 - 42 0,0
14.06.2019 12:00:00 21,2 10,9 26,8 25,7 16,5 13,2 12 6 25 13 S 1016,2 - 60 0,0
14.06.2019 11:00:00 20,0 11,5 23,4 23,0 16,0 13,2 16 9 26 14 SSE 1016,5 - 60 0,0
14.06.2019 10:00:00 19,0 11,6 22,4 19,8 15,7 13,2 12 7 28 15 S 1016,5 - 56 0,0
14.06.2019 09:00:00 17,8 11,7 19,9 16,8 15,7 13,2 15 8 24 13 S 1016,2 - 22 0,0
14.06.2019 08:00:00 15,8 10,9 15,5 15,3 15,8 13,2 13 7 18 10 SSE 1015,8 - 20 0,0
14.06.2019 07:00:00 14,4 11,3 14,9 14,2 16,0 13,2 11 6 13 7 ESE 1015,3 - 43 0,0
14.06.2019 06:00:00 12,3 10,5 10,8 13,1 16,3 13,2 7 4 13 7 E 1015,1 - 5 0,0
14.06.2019 05:00:00 12,7 10,5 10,7 13,6 16,6 13,2 10 5 18 10 SE 1014,7 - 0 0,0
14.06.2019 04:00:00 14,1 11,0 12,7 14,6 16,9 13,2 11 6 22 12 SE 1014,5 - 0 0,0
14.06.2019 03:00:00 14,9 11,0 12,7 14,8 17,2 13,2 14 8 22 12 SSE 1014,4 - 0 0,1
14.06.2019 02:00:00 13,9 10,5 12,4 14,8 17,6 13,2 10 6 16 8 SSE 1013,9 - 0 0,0
14.06.2019 01:00:00 14,7 11,2 12,4 15,8 17,9 13,2 9 5 13 7 SSE 1013,8 - 0 0,0
14.06.2019 00:00:00 16,0 11,7 13,7 17,1 18,2 13,2 9 5 25 13 S 1013,6 - 0 0,0
13.06.2019 23:00:00 17,0 10,5 15,9 17,9 18,5 13,2 13 7 19 10 SE 1013,2 - 0 0,0
13.06.2019 22:00:00 17,7 11,2 15,6 19,2 18,7 13,2 6 4 8 4 ESE 1012,9 - 23 0,0
13.06.2019 21:00:00 18,7 9,5 18,4 20,2 18,8 13,2 6 3 14 7 S 1012,5 - 41 0,0
13.06.2019 20:00:00 19,4 9,4 19,6 21,8 18,8 13,2 11 6 20 11 SSW 1012,4 - 52 0,0
13.06.2019 19:00:00 20,2 10,5 22,2 23,3 18,7 13,2 14 8 29 16 SSW 1012,2 - 52 0,0
13.06.2019 18:00:00 20,2 9,0 22,9 24,5 18,4 13,2 22 12 35 19 SSW 1012,3 - 52 0,0
13.06.2019 17:00:00 20,3 10,5 23,7 25,3 18,0 13,2 17 9 38 21 SW 1012,3 - 58 0,0
13.06.2019 16:00:00 19,8 10,2 22,2 25,2 17,5 13,2 24 13 44 24 SSW 1012,3 - 54 0,0
13.06.2019 15:00:00 20,2 11,1 23,9 24,8 17,0 13,2 33 18 48 26 SSW 1012,2 1,4 58 0,0
13.06.2019 14:00:00 19,8 10,9 23,2 23,0 16,6 13,2 31 17 49 27 SSW 1011,9 2,2 43 0,0
13.06.2019 13:00:00 19,6 10,9 22,7 23,1 16,1 13,2 31 17 50 27 SSW 1011,6 - 52 0,0
13.06.2019 12:00:00 19,2 10,7 21,1 22,2 15,6 13,2 29 16 45 25 S 1011,0 - 58 0,0
13.06.2019 11:00:00 18,6 11,0 20,8 20,5 15,2 13,2 26 14 37 20 SSW 1010,9 0,2 60 0,0

tt = Température de l'air
td = dewpoint
tt 5cm = Température de l'air 5cm
tt -5cm = Température de l'air -5cm
tt -20cm = Température de l'air -20cm
tt -100cm = Température de l'air -100cm
ff = Vitesse du vent
fx = gusts
dd = Direction du vent
ppp = reduced air pressure
vv = visibility
sd = Ensoleillement
rr = Quantités de précipitations

stations d'obs. à proximité